Year,Month,Day,Hour,Minute,Value (Times are PST for temperature in C)
2018,02,25,00,00,-19.70
2018,02,25,00,01,-19.80
2018,02,25,00,02,-19.80
2018,02,25,00,03,-19.80
2018,02,25,00,04,-19.80
2018,02,25,00,05,-19.80
2018,02,25,00,06,-19.70
2018,02,25,00,07,-19.70
2018,02,25,00,08,-19.60
2018,02,25,00,09,-19.80
2018,02,25,00,10,-19.60
2018,02,25,00,11,-19.90
2018,02,25,00,12,-19.90
2018,02,25,00,13,-19.70
2018,02,25,00,14,-19.60
2018,02,25,00,15,-19.60
2018,02,25,00,16,-19.60
2018,02,25,00,17,-19.60
2018,02,25,00,18,-19.60
2018,02,25,00,19,-19.60
2018,02,25,00,20,-19.60
2018,02,25,00,21,-19.60
2018,02,25,00,22,-19.60
2018,02,25,00,23,-19.60
2018,02,25,00,24,-19.60
2018,02,25,00,25,-19.60
2018,02,25,00,26,-19.60
2018,02,25,00,27,-19.50
2018,02,25,00,28,-19.70
2018,02,25,00,29,-19.80
2018,02,25,00,30,-19.70
2018,02,25,00,31,-19.70
2018,02,25,00,32,-19.60
2018,02,25,00,33,-19.60
2018,02,25,00,34,-19.60
2018,02,25,00,35,-19.60
2018,02,25,00,36,-19.60
2018,02,25,00,37,-19.60
2018,02,25,00,38,-19.50
2018,02,25,00,39,-19.50
2018,02,25,00,40,-19.50
2018,02,25,00,41,-19.60
2018,02,25,00,42,-19.60
2018,02,25,00,43,-19.50
2018,02,25,00,44,-19.40
2018,02,25,00,45,-19.30
2018,02,25,00,46,-19.40
2018,02,25,00,47,-19.30
2018,02,25,00,48,-19.30
2018,02,25,00,49,-19.30
2018,02,25,00,50,-19.30
2018,02,25,00,51,-19.40
2018,02,25,00,52,-19.50
2018,02,25,00,53,-19.50
2018,02,25,00,54,-19.60
2018,02,25,00,55,-19.50
2018,02,25,00,56,-19.50
2018,02,25,00,57,-19.50
2018,02,25,00,58,-19.50
2018,02,25,00,59,-19.60
2018,02,25,01,00,-19.60
2018,02,25,01,01,-19.60
2018,02,25,01,02,-19.50
2018,02,25,01,03,-19.60
2018,02,25,01,04,-19.40
2018,02,25,01,05,-19.30
2018,02,25,01,06,-19.30
2018,02,25,01,07,-19.40
2018,02,25,01,08,-19.50
2018,02,25,01,09,-19.50
2018,02,25,01,10,-19.50
2018,02,25,01,11,-19.50
2018,02,25,01,12,-19.60
2018,02,25,01,13,-19.60
2018,02,25,01,14,-19.60
2018,02,25,01,15,-19.60
2018,02,25,01,16,-19.60
2018,02,25,01,17,-19.60
2018,02,25,01,18,-19.60
2018,02,25,01,19,-19.60
2018,02,25,01,20,-19.60
2018,02,25,01,21,-19.60
2018,02,25,01,22,-19.60
2018,02,25,01,23,-19.60
2018,02,25,01,24,-19.60
2018,02,25,01,25,-19.60
2018,02,25,01,26,-19.60
2018,02,25,01,27,-19.60
2018,02,25,01,28,-19.70
2018,02,25,01,29,-19.90
2018,02,25,01,30,-19.70
2018,02,25,01,31,-19.60
2018,02,25,01,32,-19.70
2018,02,25,01,33,-19.70
2018,02,25,01,34,-19.90
2018,02,25,01,35,-19.90
2018,02,25,01,36,-19.80
2018,02,25,01,37,-19.80
2018,02,25,01,38,-19.90
2018,02,25,01,39,-19.90
2018,02,25,01,40,-19.90
2018,02,25,01,41,-19.90
2018,02,25,01,42,-19.80
2018,02,25,01,43,-19.80
2018,02,25,01,44,-19.90
2018,02,25,01,45,-19.90
2018,02,25,01,46,-19.90
2018,02,25,01,47,-19.90
2018,02,25,01,48,-19.90
2018,02,25,01,49,-19.90
2018,02,25,01,50,-19.90
2018,02,25,01,51,-19.90
2018,02,25,01,52,-19.90
2018,02,25,01,53,-19.90
2018,02,25,01,54,-20.20
2018,02,25,01,55,-20.20
2018,02,25,01,56,-20.00
2018,02,25,01,57,-20.00
2018,02,25,01,58,-20.10
2018,02,25,01,59,-20.20
2018,02,25,02,00,-20.10
2018,02,25,02,01,-20.10
2018,02,25,02,02,-20.20
2018,02,25,02,03,-20.20
2018,02,25,02,04,-20.20
2018,02,25,02,05,-20.20
2018,02,25,02,06,-20.20
2018,02,25,02,07,-20.20
2018,02,25,02,08,-20.30
2018,02,25,02,09,-20.40
2018,02,25,02,10,-20.50
2018,02,25,02,11,-20.40
2018,02,25,02,12,-20.50
2018,02,25,02,13,-20.30
2018,02,25,02,14,-20.30
2018,02,25,02,15,-20.20
2018,02,25,02,16,-20.00
2018,02,25,02,17,-19.90
2018,02,25,02,18,-19.90
2018,02,25,02,19,-19.90
2018,02,25,02,20,-19.80
2018,02,25,02,21,-19.60
2018,02,25,02,22,-19.40
2018,02,25,02,23,-19.30
2018,02,25,02,24,-19.30
2018,02,25,02,25,-19.30
2018,02,25,02,26,-19.30
2018,02,25,02,27,-19.30
2018,02,25,02,28,-19.50
2018,02,25,02,29,-19.50
2018,02,25,02,30,-19.60
2018,02,25,02,31,-19.60
2018,02,25,02,32,-19.60
2018,02,25,02,33,-19.70
2018,02,25,02,34,-19.90
2018,02,25,02,35,-19.60
2018,02,25,02,36,-19.60
2018,02,25,02,37,-19.60
2018,02,25,02,38,-19.60
2018,02,25,02,39,-19.60
2018,02,25,02,40,-19.50
2018,02,25,02,41,-19.50
2018,02,25,02,42,-19.50
2018,02,25,02,43,-19.30
2018,02,25,02,44,-19.30
2018,02,25,02,45,-19.30
2018,02,25,02,46,-19.30
2018,02,25,02,47,-19.10
2018,02,25,02,48,-19.00
2018,02,25,02,49,-19.00
2018,02,25,02,50,-19.00
2018,02,25,02,51,-18.80
2018,02,25,02,52,-18.50
2018,02,25,02,53,-18.40
2018,02,25,02,54,-18.40
2018,02,25,02,55,-18.40
2018,02,25,02,56,-18.60
2018,02,25,02,57,-18.50
2018,02,25,02,58,-18.40
2018,02,25,02,59,-18.50
2018,02,25,03,00,-18.40
2018,02,25,03,01,-18.50
2018,02,25,03,02,-18.40
2018,02,25,03,03,-18.40
2018,02,25,03,04,-18.40
2018,02,25,03,05,-18.40
2018,02,25,03,06,-18.40
2018,02,25,03,07,-18.30
2018,02,25,03,08,-18.40
2018,02,25,03,09,-18.30
2018,02,25,03,10,-18.30
2018,02,25,03,11,-18.30
2018,02,25,03,12,-18.30
2018,02,25,03,13,-18.30
2018,02,25,03,14,-18.30
2018,02,25,03,15,-18.40
2018,02,25,03,16,-18.30
2018,02,25,03,17,-18.40
2018,02,25,03,18,-18.40
2018,02,25,03,19,-18.30
2018,02,25,03,20,-18.40
2018,02,25,03,21,-18.40
2018,02,25,03,22,-18.40
2018,02,25,03,23,-18.40
2018,02,25,03,24,-18.40
2018,02,25,03,25,-18.40
2018,02,25,03,26,-18.40
2018,02,25,03,27,-18.40
2018,02,25,03,28,-18.40
2018,02,25,03,29,-18.40
2018,02,25,03,30,-18.40
2018,02,25,03,31,-18.40
2018,02,25,03,32,-18.40
2018,02,25,03,33,-18.30
2018,02,25,03,34,-18.30
2018,02,25,03,35,-18.30
2018,02,25,03,36,-18.30
2018,02,25,03,37,-18.40
2018,02,25,03,38,-18.40
2018,02,25,03,39,-18.40
2018,02,25,03,40,-18.40
2018,02,25,03,41,-18.40
2018,02,25,03,42,-18.40
2018,02,25,03,43,-18.40
2018,02,25,03,44,-18.40
2018,02,25,03,45,-18.40
2018,02,25,03,46,-18.40
2018,02,25,03,47,-18.40
2018,02,25,03,48,-18.40
2018,02,25,03,49,-18.40
2018,02,25,03,50,-18.50
2018,02,25,03,51,-18.50
2018,02,25,03,52,-18.60
2018,02,25,03,53,-18.60
2018,02,25,03,54,-18.60
2018,02,25,03,55,-18.70
2018,02,25,03,56,-18.70
2018,02,25,03,57,-18.60
2018,02,25,03,58,-18.70
2018,02,25,03,59,-18.70
2018,02,25,04,00,-18.70
2018,02,25,04,01,-18.70
2018,02,25,04,02,-18.70
2018,02,25,04,03,-18.60
2018,02,25,04,04,-18.70
2018,02,25,04,05,-18.70
2018,02,25,04,06,-18.70
2018,02,25,04,07,-18.70
2018,02,25,04,08,-18.70
2018,02,25,04,09,-18.60
2018,02,25,04,10,-18.70
2018,02,25,04,11,-18.60
2018,02,25,04,12,-18.60
2018,02,25,04,13,-18.70
2018,02,25,04,14,-18.60
2018,02,25,04,15,-18.50
2018,02,25,04,16,-18.50
2018,02,25,04,17,-18.70
2018,02,25,04,18,-18.60
2018,02,25,04,19,-18.50
2018,02,25,04,20,-18.50
2018,02,25,04,21,-18.40
2018,02,25,04,22,-18.50
2018,02,25,04,23,-18.50
2018,02,25,04,24,-18.70
2018,02,25,04,25,-18.70
2018,02,25,04,26,-18.60
2018,02,25,04,27,-18.40
2018,02,25,04,28,-18.60
2018,02,25,04,29,-18.70
2018,02,25,04,30,-18.70
2018,02,25,04,31,-18.70
2018,02,25,04,32,-18.70
2018,02,25,04,33,-18.70
2018,02,25,04,34,-18.70
2018,02,25,04,35,-18.70
2018,02,25,04,36,-18.90
2018,02,25,04,37,-19.00
2018,02,25,04,38,-19.00
2018,02,25,04,39,-19.00
2018,02,25,04,40,-19.00
2018,02,25,04,41,-19.00
2018,02,25,04,42,-19.00
2018,02,25,04,43,-19.10
2018,02,25,04,44,-19.30
2018,02,25,04,45,-19.30
2018,02,25,04,46,-19.30
2018,02,25,04,47,-19.30
2018,02,25,04,48,-19.60
2018,02,25,04,49,-19.60
2018,02,25,04,50,-19.60
2018,02,25,04,51,-19.60
2018,02,25,04,52,-19.60
2018,02,25,04,53,-19.80
2018,02,25,04,54,-19.90
2018,02,25,04,55,-19.80
2018,02,25,04,56,-19.80
2018,02,25,04,57,-19.90
2018,02,25,04,58,-19.90
2018,02,25,04,59,-19.90
2018,02,25,05,00,-19.90
2018,02,25,05,01,-19.90
2018,02,25,05,02,-19.90
2018,02,25,05,03,-19.90
2018,02,25,05,04,-20.20
2018,02,25,05,05,-20.20
2018,02,25,05,06,-20.10
2018,02,25,05,07,-20.20
2018,02,25,05,08,-20.20
2018,02,25,05,09,-20.20
2018,02,25,05,10,-20.20
2018,02,25,05,11,-20.20
2018,02,25,05,12,-20.30
2018,02,25,05,13,-20.40
2018,02,25,05,14,-20.40
2018,02,25,05,15,-20.50
2018,02,25,05,16,-20.50
2018,02,25,05,17,-20.50
2018,02,25,05,18,-20.50
2018,02,25,05,19,-20.50
2018,02,25,05,20,-20.50
2018,02,25,05,21,-20.50
2018,02,25,05,22,-20.50
2018,02,25,05,23,-20.50
2018,02,25,05,24,-20.50
2018,02,25,05,25,-20.50
2018,02,25,05,26,-20.50
2018,02,25,05,27,-20.50
2018,02,25,05,28,-20.50
2018,02,25,05,29,-20.60
2018,02,25,05,30,-20.70
2018,02,25,05,31,-20.80
2018,02,25,05,32,-20.80
2018,02,25,05,33,-20.80
2018,02,25,05,34,-20.80
2018,02,25,05,35,-20.80
2018,02,25,05,36,-20.80
2018,02,25,05,37,-20.80
2018,02,25,05,38,-20.80
2018,02,25,05,39,-20.80
2018,02,25,05,40,-20.80
2018,02,25,05,41,-20.80
2018,02,25,05,42,-20.90
2018,02,25,05,43,-20.90
2018,02,25,05,44,-21.10
2018,02,25,05,45,-21.10
2018,02,25,05,46,-21.00
2018,02,25,05,47,-21.10
2018,02,25,05,48,-21.10
2018,02,25,05,49,-21.10
2018,02,25,05,50,-21.10
2018,02,25,05,51,-21.10
2018,02,25,05,52,-21.10
2018,02,25,05,53,-21.10
2018,02,25,05,54,-21.10
2018,02,25,05,55,-21.10
2018,02,25,05,56,-21.10
2018,02,25,05,57,-21.10
2018,02,25,08,12,-22.30
2018,02,25,08,13,-22.30
2018,02,25,08,14,-22.30
2018,02,25,08,15,-22.30
2018,02,25,08,16,-22.30
2018,02,25,08,17,-22.30
2018,02,25,08,18,-22.30
2018,02,25,08,19,-22.30
2018,02,25,08,20,-22.30
2018,02,25,08,21,-22.30
2018,02,25,08,22,-22.30
2018,02,25,08,23,-22.30
2018,02,25,08,24,-22.30
2018,02,25,08,25,-22.30
2018,02,25,08,26,-22.30
2018,02,25,08,27,-22.30
2018,02,25,08,28,-22.30
2018,02,25,08,29,-22.30
2018,02,25,08,30,-22.30
2018,02,25,08,31,-22.30
2018,02,25,08,32,-22.30
2018,02,25,08,33,-22.30
2018,02,25,08,34,-22.20
2018,02,25,08,35,-22.00
2018,02,25,08,36,-22.00
2018,02,25,08,37,-22.00
2018,02,25,08,38,-22.00
2018,02,25,08,39,-22.00
2018,02,25,08,40,-22.10
2018,02,25,08,41,-22.00
2018,02,25,08,42,-22.00
2018,02,25,08,43,-21.90
2018,02,25,08,44,-22.00
2018,02,25,08,45,-21.90
2018,02,25,08,46,-21.70
2018,02,25,08,47,-21.70
2018,02,25,08,48,-21.70
2018,02,25,08,49,-21.60
2018,02,25,08,50,-21.60
2018,02,25,08,51,-21.60
2018,02,25,08,52,-21.50
2018,02,25,08,53,-21.40
2018,02,25,08,54,-21.40
2018,02,25,08,55,-21.40
2018,02,25,08,56,-21.40
2018,02,25,08,57,-21.20
2018,02,25,08,58,-21.30
2018,02,25,08,59,-21.30
2018,02,25,09,00,-21.20
2018,02,25,09,01,-21.10
2018,02,25,09,02,-21.10
2018,02,25,09,03,-21.10
2018,02,25,09,04,-21.10
2018,02,25,09,05,-21.10
2018,02,25,09,06,-21.10
2018,02,25,09,07,-21.10
2018,02,25,09,08,-20.90
2018,02,25,09,09,-20.90
2018,02,25,09,10,-21.00
2018,02,25,09,11,-21.10
2018,02,25,09,12,-21.00
2018,02,25,09,13,-21.00
2018,02,25,09,14,-21.00
2018,02,25,09,15,-21.00
2018,02,25,09,16,-20.80
2018,02,25,09,17,-20.80
2018,02,25,09,18,-20.80
2018,02,25,09,19,-20.80
2018,02,25,09,20,-20.80
2018,02,25,09,21,-20.80
2018,02,25,09,22,-20.80
2018,02,25,09,23,-20.80
2018,02,25,09,24,-20.80
2018,02,25,09,25,-20.70
2018,02,25,09,26,-20.60
2018,02,25,09,27,-20.60
2018,02,25,09,28,-20.60
2018,02,25,09,29,-20.70
2018,02,25,09,30,-20.80
2018,02,25,09,31,-20.70
2018,02,25,09,32,-20.60
2018,02,25,09,33,-20.70
2018,02,25,09,34,-20.60
2018,02,25,09,35,-20.60
2018,02,25,09,36,-20.60
2018,02,25,09,37,-20.50
2018,02,25,09,38,-20.50
2018,02,25,09,39,-20.50
2018,02,25,09,40,-20.50
2018,02,25,09,41,-20.50
2018,02,25,09,42,-20.50
2018,02,25,09,43,-20.40
2018,02,25,09,44,-20.30
2018,02,25,09,45,-20.40
2018,02,25,09,46,-20.30
2018,02,25,09,47,-20.40
2018,02,25,09,48,-20.50
2018,02,25,09,49,-20.50
2018,02,25,09,50,-20.50
2018,02,25,09,51,-20.20
2018,02,25,09,52,-20.20
2018,02,25,09,53,-20.20
2018,02,25,09,54,-20.20
2018,02,25,09,55,-20.30
2018,02,25,09,56,-20.50
2018,02,25,09,57,-20.40
2018,02,25,09,58,-20.30
2018,02,25,09,59,-20.20
2018,02,25,10,00,-20.50
2018,02,25,10,01,-20.50
2018,02,25,10,02,-20.50
2018,02,25,10,03,-20.50
2018,02,25,10,04,-20.50
2018,02,25,10,05,-20.50
2018,02,25,10,06,-20.50
2018,02,25,10,07,-20.50
2018,02,25,10,08,-20.40
2018,02,25,10,09,-20.50
2018,02,25,10,10,-20.50
2018,02,25,10,11,-20.50
2018,02,25,10,12,-20.40
2018,02,25,10,13,-20.40
2018,02,25,10,14,-20.40
2018,02,25,10,15,-20.30
2018,02,25,10,16,-20.30
2018,02,25,10,17,-20.20
2018,02,25,10,18,-20.20
2018,02,25,10,19,-20.30
2018,02,25,10,20,-20.20
2018,02,25,10,21,-20.20
2018,02,25,10,22,-20.20
2018,02,25,10,23,-20.10
2018,02,25,10,24,-19.90
2018,02,25,10,25,-19.90
2018,02,25,10,26,-19.80
2018,02,25,10,27,-19.80
2018,02,25,10,28,-19.80
2018,02,25,10,29,-19.60
2018,02,25,10,30,-19.60
2018,02,25,10,31,-19.50
2018,02,25,10,32,-19.50
2018,02,25,10,33,-19.50
2018,02,25,10,34,-19.30
2018,02,25,10,35,-19.30
2018,02,25,10,36,-19.30
2018,02,25,10,37,-19.20
2018,02,25,10,38,-19.20
2018,02,25,10,39,-19.10
2018,02,25,10,40,-19.00
2018,02,25,10,41,-18.90
2018,02,25,10,42,-18.90
2018,02,25,10,43,-18.70
2018,02,25,10,44,-18.90
2018,02,25,10,45,-19.00
2018,02,25,10,46,-19.00
2018,02,25,10,47,-19.00
2018,02,25,10,48,-18.80
2018,02,25,10,49,-18.70
2018,02,25,10,50,-18.70
2018,02,25,10,51,-18.70
2018,02,25,10,52,-18.90
2018,02,25,10,53,-18.90
2018,02,25,10,54,-18.90
2018,02,25,10,55,-18.90
2018,02,25,10,56,-18.70
2018,02,25,10,57,-18.70
2018,02,25,10,58,-18.70
2018,02,25,10,59,-18.70
2018,02,25,11,00,-18.60
2018,02,25,11,01,-18.40
2018,02,25,11,02,-18.70
2018,02,25,11,03,-18.70
2018,02,25,11,04,-18.70
2018,02,25,11,05,-18.50
2018,02,25,11,06,-18.60
2018,02,25,11,07,-18.70
2018,02,25,11,08,-18.60
2018,02,25,11,09,-18.40
2018,02,25,11,10,-18.40
2018,02,25,11,11,-18.40
2018,02,25,11,12,-18.40
2018,02,25,11,13,-18.50
2018,02,25,11,14,-18.50
2018,02,25,11,15,-18.70
2018,02,25,11,16,-18.70
2018,02,25,11,17,-18.60
2018,02,25,11,18,-18.60
2018,02,25,11,19,-18.70
2018,02,25,11,20,-18.70
2018,02,25,11,21,-18.50
2018,02,25,11,22,-18.60
2018,02,25,11,23,-18.50
2018,02,25,11,24,-18.60
2018,02,25,11,25,-18.60
2018,02,25,11,26,-18.60
2018,02,25,11,27,-18.70
2018,02,25,11,28,-18.70
2018,02,25,11,29,-18.70
2018,02,25,11,30,-18.70
2018,02,25,11,31,-18.60
2018,02,25,11,32,-18.60
2018,02,25,11,33,-18.70
2018,02,25,11,34,-18.60
2018,02,25,11,35,-18.50
2018,02,25,11,36,-18.60
2018,02,25,11,37,-18.60
2018,02,25,11,38,-18.40
2018,02,25,11,39,-18.40
2018,02,25,11,40,-18.30
2018,02,25,11,41,-18.30
2018,02,25,11,42,-18.40
2018,02,25,11,43,-18.30
2018,02,25,11,44,-18.40
2018,02,25,11,45,-18.30
2018,02,25,11,46,-18.30
2018,02,25,11,47,-18.30
2018,02,25,11,48,-18.40
2018,02,25,11,49,-18.30
2018,02,25,11,50,-18.40
2018,02,25,11,51,-18.30
2018,02,25,11,52,-18.40
2018,02,25,11,53,-18.40
2018,02,25,11,54,-18.40
2018,02,25,11,55,-18.50
2018,02,25,11,56,-18.50
2018,02,25,11,57,-18.60
2018,02,25,11,58,-18.60
2018,02,25,11,59,-18.70
2018,02,25,12,00,-18.90
2018,02,25,12,01,-19.00
2018,02,25,12,02,-19.00
2018,02,25,12,03,-19.10
2018,02,25,12,04,-19.10
2018,02,25,12,05,-19.10
2018,02,25,12,06,-19.00
2018,02,25,12,07,-18.90
2018,02,25,12,08,-18.90
2018,02,25,12,09,-18.90
2018,02,25,12,10,-18.80
2018,02,25,12,11,-18.80
2018,02,25,12,12,-18.70
2018,02,25,12,13,-18.70
2018,02,25,12,14,-18.70
2018,02,25,12,15,-18.60
2018,02,25,12,16,-18.50
2018,02,25,12,17,-18.60
2018,02,25,12,18,-18.50
2018,02,25,12,19,-18.70
2018,02,25,12,20,-18.60
2018,02,25,12,21,-18.50
2018,02,25,12,22,-18.40
2018,02,25,12,23,-18.30
2018,02,25,12,24,-18.20
2018,02,25,12,25,-18.40
2018,02,25,12,26,-18.20
2018,02,25,12,27,-18.20
2018,02,25,12,28,-18.10
2018,02,25,12,29,-18.20
2018,02,25,12,30,-18.10
2018,02,25,12,31,-18.10
2018,02,25,12,32,-18.10
2018,02,25,12,33,-18.00
2018,02,25,12,34,-18.00
2018,02,25,12,35,-18.10
2018,02,25,12,36,-17.80
2018,02,25,12,37,-17.90
2018,02,25,12,38,-17.80
2018,02,25,12,39,-17.80
2018,02,25,12,40,-17.80
2018,02,25,12,41,-17.80
2018,02,25,12,42,-17.80
2018,02,25,12,43,-17.80
2018,02,25,12,44,-17.80
2018,02,25,12,45,-17.70
2018,02,25,12,46,-18.10
2018,02,25,12,47,-18.10
2018,02,25,12,48,-18.30
2018,02,25,12,49,-18.30
2018,02,25,12,50,-18.20
2018,02,25,12,51,-18.40
2018,02,25,12,52,-18.40
2018,02,25,12,53,-18.40
2018,02,25,12,54,-18.40
2018,02,25,12,55,-18.40
2018,02,25,12,56,-18.40
2018,02,25,12,57,-18.40
2018,02,25,12,58,-18.40
2018,02,25,12,59,-18.40
2018,02,25,13,00,-18.40
2018,02,25,13,01,-18.20
2018,02,25,13,02,-18.40
2018,02,25,13,03,-18.60
2018,02,25,13,04,-18.60
2018,02,25,13,05,-18.60
2018,02,25,13,06,-18.60
2018,02,25,13,07,-18.40
2018,02,25,13,08,-18.50
2018,02,25,13,09,-18.60
2018,02,25,13,10,-18.60
2018,02,25,13,11,-18.70
2018,02,25,13,12,-18.80
2018,02,25,13,13,-19.00
2018,02,25,13,14,-18.90
2018,02,25,13,15,-19.00
2018,02,25,13,16,-19.00
2018,02,25,13,17,-19.00
2018,02,25,13,18,-19.00
2018,02,25,13,19,-19.10
2018,02,25,13,20,-19.00
2018,02,25,13,21,-19.00
2018,02,25,13,22,-19.00
2018,02,25,13,23,-19.00
2018,02,25,13,24,-19.00
2018,02,25,13,25,-19.00
2018,02,25,13,26,-19.10
2018,02,25,13,27,-19.10
2018,02,25,13,28,-19.00
2018,02,25,13,29,-19.00
2018,02,25,13,30,-18.90
2018,02,25,13,31,-18.90
2018,02,25,13,32,-18.90
2018,02,25,13,33,-18.90
2018,02,25,13,34,-18.90
2018,02,25,13,35,-18.80
2018,02,25,13,36,-18.80
2018,02,25,13,37,-18.90
2018,02,25,13,38,-18.70
2018,02,25,13,39,-18.90
2018,02,25,13,40,-18.70
2018,02,25,13,41,-18.70
2018,02,25,13,42,-18.70
2018,02,25,13,43,-18.70
2018,02,25,13,44,-18.70
2018,02,25,13,45,-18.60
2018,02,25,13,46,-18.70
2018,02,25,13,47,-18.90
2018,02,25,13,48,-19.00
2018,02,25,13,49,-19.00
2018,02,25,13,50,-19.00
2018,02,25,13,51,-19.00
2018,02,25,13,52,-19.10
2018,02,25,13,53,-19.00
2018,02,25,13,54,-19.00
2018,02,25,13,55,-18.90
2018,02,25,13,56,-18.90
2018,02,25,13,57,-19.00
2018,02,25,13,58,-18.90
2018,02,25,13,59,-18.90
2018,02,25,14,00,-19.00
2018,02,25,14,01,-18.80
2018,02,25,14,02,-18.70
2018,02,25,14,03,-18.70
2018,02,25,14,04,-18.90
2018,02,25,14,05,-18.90
2018,02,25,14,06,-19.00
2018,02,25,14,07,-19.00
2018,02,25,14,08,-19.00
2018,02,25,14,09,-19.00
2018,02,25,14,10,-19.00
2018,02,25,14,11,-19.00
2018,02,25,14,12,-19.00
2018,02,25,14,13,-19.00
2018,02,25,14,14,-18.90
2018,02,25,14,15,-18.80
2018,02,25,14,16,-18.70
2018,02,25,14,17,-18.70
2018,02,25,14,18,-18.70
2018,02,25,14,19,-18.50
2018,02,25,14,20,-18.60
2018,02,25,14,21,-18.60
2018,02,25,14,22,-18.70
2018,02,25,14,23,-18.70
2018,02,25,14,24,-18.70
2018,02,25,14,25,-18.80
2018,02,25,14,26,-18.80
2018,02,25,14,27,-18.90
2018,02,25,14,28,-18.90
2018,02,25,14,29,-18.80
2018,02,25,14,30,-18.80
2018,02,25,14,31,-18.80
2018,02,25,14,32,-18.80
2018,02,25,14,33,-18.80
2018,02,25,14,34,-18.80
2018,02,25,14,35,-18.80
2018,02,25,14,36,-18.80
2018,02,25,14,37,-18.90
2018,02,25,14,38,-19.00
2018,02,25,14,39,-18.90
2018,02,25,14,40,-18.90
2018,02,25,14,41,-18.90
2018,02,25,14,42,-19.00
2018,02,25,14,43,-19.00
2018,02,25,14,44,-19.00
2018,02,25,14,45,-19.00
2018,02,25,14,46,-19.00
2018,02,25,14,47,-19.30
2018,02,25,14,48,-19.10
2018,02,25,14,49,-19.10
2018,02,25,14,50,-19.30
2018,02,25,14,51,-19.20
2018,02,25,14,52,-19.30
2018,02,25,14,53,-19.30
2018,02,25,14,54,-19.30
2018,02,25,14,55,-19.30
2018,02,25,14,56,-19.60
2018,02,25,14,57,-19.60
2018,02,25,14,58,-19.60
2018,02,25,14,59,-19.80
2018,02,25,15,00,-19.80
2018,02,25,15,01,-19.90
2018,02,25,15,02,-20.00
2018,02,25,15,03,-20.00
2018,02,25,15,04,-20.00
2018,02,25,15,05,-20.10
2018,02,25,15,06,-20.20
2018,02,25,15,07,-20.30
2018,02,25,15,08,-20.40
2018,02,25,15,09,-20.50
2018,02,25,15,10,-20.50
2018,02,25,15,11,-20.40
2018,02,25,15,12,-20.30
2018,02,25,15,13,-20.50
2018,02,25,15,14,-20.40
2018,02,25,15,15,-20.50
2018,02,25,15,16,-20.40
2018,02,25,15,17,-20.50
2018,02,25,15,18,-20.70
2018,02,25,15,19,-20.70
2018,02,25,15,20,-20.70
2018,02,25,15,21,-20.70
2018,02,25,15,22,-20.70
2018,02,25,15,23,-20.50
2018,02,25,15,24,-20.60
2018,02,25,15,25,-20.70
2018,02,25,15,26,-20.70
2018,02,25,15,27,-20.70
2018,02,25,15,28,-20.80
2018,02,25,15,29,-20.80
2018,02,25,15,30,-21.00
2018,02,25,15,31,-21.00
2018,02,25,15,32,-21.00
2018,02,25,15,33,-21.00
2018,02,25,15,34,-21.10
2018,02,25,15,35,-21.10
2018,02,25,15,36,-21.10
2018,02,25,15,37,-21.10
2018,02,25,15,38,-21.10
2018,02,25,15,39,-21.20
2018,02,25,15,40,-21.20
2018,02,25,15,41,-21.20
2018,02,25,15,42,-21.30
2018,02,25,15,43,-21.30
2018,02,25,15,44,-21.30
2018,02,25,15,45,-21.40
2018,02,25,15,46,-21.40
2018,02,25,15,47,-21.40
2018,02,25,15,48,-21.40
2018,02,25,15,49,-21.40
2018,02,25,15,50,-21.40
2018,02,25,15,51,-21.30
2018,02,25,15,52,-21.20
2018,02,25,15,53,-21.30
2018,02,25,15,54,-21.40
2018,02,25,15,55,-21.20
2018,02,25,15,56,-21.30
2018,02,25,15,57,-21.40
2018,02,25,15,58,-21.40
2018,02,25,15,59,-21.40
2018,02,25,16,00,-21.40
2018,02,25,16,01,-21.40
2018,02,25,16,02,-21.40
2018,02,25,16,03,-21.40
2018,02,25,16,04,-21.30
2018,02,25,16,05,-21.40
2018,02,25,16,06,-21.40
2018,02,25,16,07,-21.40
2018,02,25,16,08,-21.40
2018,02,25,16,09,-21.40
2018,02,25,16,10,-21.40
2018,02,25,16,11,-21.30
2018,02,25,16,12,-21.30
2018,02,25,16,13,-21.30
2018,02,25,16,14,-21.20
2018,02,25,16,15,-21.10
2018,02,25,16,16,-21.20
2018,02,25,16,17,-21.20
2018,02,25,16,18,-21.20
2018,02,25,16,19,-21.10
2018,02,25,16,20,-21.10
2018,02,25,16,21,-21.10
2018,02,25,16,22,-21.10
2018,02,25,16,23,-21.10
2018,02,25,16,24,-21.20
2018,02,25,16,25,-21.30
2018,02,25,16,26,-21.30
2018,02,25,16,27,-21.50
2018,02,25,16,28,-21.50
2018,02,25,16,29,-21.60
2018,02,25,16,30,-21.60
2018,02,25,16,31,-21.70
2018,02,25,16,32,-21.60
2018,02,25,16,33,-21.60
2018,02,25,16,34,-21.60
2018,02,25,16,35,-21.70
2018,02,25,16,36,-21.70
2018,02,25,16,37,-21.70
2018,02,25,16,38,-21.70
2018,02,25,16,39,-21.60
2018,02,25,16,40,-21.70
2018,02,25,16,41,-21.70
2018,02,25,16,42,-21.70
2018,02,25,16,43,-21.70
2018,02,25,16,44,-21.70
2018,02,25,16,45,-21.60
2018,02,25,16,46,-21.70
2018,02,25,16,47,-21.80
2018,02,25,16,48,-22.00
2018,02,25,16,49,-21.90
2018,02,25,16,50,-21.90
2018,02,25,16,51,-21.90
2018,02,25,16,52,-22.10
2018,02,25,16,53,-22.10
2018,02,25,16,54,-22.20
2018,02,25,16,55,-22.20
2018,02,25,16,56,-22.30
2018,02,25,16,57,-22.30
2018,02,25,16,58,-22.30
2018,02,25,16,59,-22.40
2018,02,25,17,00,-22.50
2018,02,25,17,01,-22.50
2018,02,25,17,02,-22.40
2018,02,25,17,03,-22.50
2018,02,25,17,04,-22.50
2018,02,25,17,05,-22.50
2018,02,25,17,06,-22.50
2018,02,25,17,07,-22.50
2018,02,25,17,08,-22.70
2018,02,25,17,09,-22.90
2018,02,25,17,10,-22.90
2018,02,25,17,11,-22.90
2018,02,25,17,12,-22.90
2018,02,25,17,13,-22.90
2018,02,25,17,14,-22.90
2018,02,25,17,15,-22.90
2018,02,25,17,16,-22.90
2018,02,25,17,17,-22.90
2018,02,25,17,18,-22.90
2018,02,25,17,19,-23.10
2018,02,25,17,20,-23.10
2018,02,25,17,21,-23.20
2018,02,25,17,22,-23.20
2018,02,25,17,23,-23.20
2018,02,25,17,24,-23.10
2018,02,25,17,25,-23.10
2018,02,25,17,26,-23.10
2018,02,25,17,27,-23.20
2018,02,25,17,28,-23.20
2018,02,25,17,29,-23.20
2018,02,25,17,30,-23.20
2018,02,25,17,31,-23.20
2018,02,25,17,32,-23.20
2018,02,25,17,33,-23.20
2018,02,25,17,34,-23.20
2018,02,25,17,35,-23.20
2018,02,25,17,36,-23.50
2018,02,25,17,37,-23.50
2018,02,25,17,38,-23.50
2018,02,25,17,39,-23.50
2018,02,25,17,40,-23.60
2018,02,25,17,41,-23.60
2018,02,25,17,42,-23.60
2018,02,25,17,43,-23.60
2018,02,25,17,44,-23.60
2018,02,25,17,45,-23.60
2018,02,25,17,46,-23.60
2018,02,25,17,47,-23.60
2018,02,25,17,48,-23.70
2018,02,25,17,49,-23.80
2018,02,25,17,50,-23.90
2018,02,25,17,51,-23.90
2018,02,25,17,52,-23.90
2018,02,25,17,53,-23.90
2018,02,25,17,54,-23.90
2018,02,25,17,55,-23.90
2018,02,25,17,56,-23.90
2018,02,25,17,57,-24.00
2018,02,25,17,58,-24.20
2018,02,25,17,59,-24.20
2018,02,25,18,00,-24.20
2018,02,25,18,01,-24.20
2018,02,25,18,02,-24.20
2018,02,25,18,03,-24.20
2018,02,25,18,04,-24.40
2018,02,25,18,05,-24.50
2018,02,25,18,06,-24.50
2018,02,25,18,07,-24.50
2018,02,25,18,08,-24.60
2018,02,25,18,09,-24.60
2018,02,25,18,10,-24.60
2018,02,25,18,11,-24.60
2018,02,25,18,12,-24.60
2018,02,25,18,13,-24.60
2018,02,25,18,14,-24.60
2018,02,25,18,15,-24.80
2018,02,25,18,16,-24.80
2018,02,25,18,17,-24.80
2018,02,25,18,18,-24.80
2018,02,25,18,19,-24.80
2018,02,25,18,20,-24.90
2018,02,25,18,21,-24.90
2018,02,25,18,22,-24.90
2018,02,25,18,23,-24.90
2018,02,25,18,24,-24.90
2018,02,25,18,25,-24.90
2018,02,25,18,26,-24.90
2018,02,25,18,27,-24.90
2018,02,25,18,28,-24.90
2018,02,25,18,29,-24.90
2018,02,25,18,30,-24.90
2018,02,25,18,31,-24.90
2018,02,25,18,32,-24.90
2018,02,25,18,33,-24.90
2018,02,25,18,34,-24.90
2018,02,25,18,35,-24.90
2018,02,25,18,36,-24.90
2018,02,25,18,37,-24.90
2018,02,25,18,38,-24.90
2018,02,25,18,48,-24.90
2018,02,25,18,50,-24.90
2018,02,25,18,51,-24.90
2018,02,25,18,52,-24.90
2018,02,25,18,53,-24.90
2018,02,25,18,54,-24.90
2018,02,25,18,55,-24.90
2018,02,25,18,56,-24.90
2018,02,25,18,57,-24.80
2018,02,25,18,58,-24.70
2018,02,25,18,59,-24.60
2018,02,25,19,00,-24.60